Погода в Пачелме

Погода в Пачелме : погода сейчас, прогноз погоды и архив. Всё, что Вы хотите узнать о погоде в Пачелме!

Хотите узнать прогноз погоды в Пачелме? Тогда Вам сюда: Погода в Пачелме

Поиск расширенной информации на нашем сайте:

Другие новости

Новости СМИ2

Главная страница сайта

Новости сайта

03.07.2017

Напоминаем, что на нашем специализированном сайте Метеоцентр.Азия вы можете получить высокодетализированные автоматические прогнозы погоды по пунктам России, СНГ и мира в авиационном формате (включающие направление и скорость ветра, видимость, явления погоды, количество и форму облачности, нижнюю и верхнюю границу облачности).


Погода в Пачелме - сегодня

Время (UTC), дата Ветер
(°,м/с) 
Видим.   Явления Облачность Т
(°С)
Тd
(°С)
f(%) Тe
(°С)
Pmin
(гПа)
dP
(гПа)
Po
(мм)
O2
(г/м3)
Тmin Tmax R s Состояние
почвы
00 15.08.18 190 (Ю) 10 км    ясно 
+10.5 +8.3 86 +12  1018.8  0.6  741  286           
03 15.08.18 180 (Ю) 10 км    8/0 верхняя 
[Ci fib]
+14.2 +9.5 73 +16  1018.8  0.5  741  282  +10.5        сухая 
06 15.08.18 200 (Ю) 10 км    8/0 верхняя 
[Cc]
+21.8 +10.4 48 +24  1018.2  0.2  741  275           
09 15.08.18 220 (ЮЗ) 10 км    6/6 800 м 
[Cu med, cong]
+25.5 +9.2 36 +26  1017.4  -0.4  741  271           
15 15.08.18 180 (Ю) 10 км    9/9 660 м 
[Sc diur, vesp]
+26.1 +11.6 40 +30  1015  -0.9  739  270    +27.2       
18 15.08.18 180 (Ю) 10 км    ясно 
+22 +11.5 51 +26  1015.5  0.1  739  273           
21 15.08.18 200 (Ю) 10 км    ясно 
+20.2 +10.7 54 +23  1015.1  -0.6  739  275           
00 16.08.18 210 (ЮЗ) 10 км    ясно 
+19.1 +9.7 54 +20  1015.3  739  276           
03 16.08.18 200 (Ю) 10 км    8/8 700 м 
[Cu med, cong]
+19.6 +9 50 +20  1014.5  -0.6  738  276  +19        сухая 
06 16.08.18 230 (ЮЗ) 10 км    3/3 300 м средняя 
[Cu med, cong|Ac trans]
+23.8 +11.4 46 +27  1014.1  738  271           
09 16.08.18 230 (ЮЗ) 10 км    8/3 600 м средняя, верхняя 
[Cu med, cong|Ac As|Cc]
+28.4 +13.1 39 +34  1013.4  -0.2  738  267           
12 16.08.18 270 (З) 10 км    8/4 600 м верхняя 
[Cu med, cong|Ci fib]
+30.3 +13.5 36 +37  1012.9  -0.3  738  265           
15 16.08.18 300 (СЗ) 4{14}  10 км  {гроза, ливн. осадки}  9/3 600 м кучево-дожд., средняя, верхняя 
[Cb cap|Ac trans|Cc]
+25.5 +18.8 66 +42  1013.6  0.3  738  268    +30.5     
18 16.08.18 340 (С) 10 км  {гроза, ливн. осадки}  8/0 средняя 
[Ac cast]
+21.8 +14.5 63 +30  1014.9  0.8  739  273           
21 16.08.18 310 (СЗ) 10 км    ясно 
+19.1 +14.3 74 +28  1015.7  0.5  739  275           
00 17.08.18 320 (СЗ) 10 км    ясно 
+17.2 +15.3 89 +28  1016.4  0.5  739  277           
03 17.08.18 350 (С) 10 км    9/9 630 м 
[Sc]
+16.6 +14.7 89 +26  1017.5  740  278  +16.4        влажная 
06 17.08.18 010 (С) 10 км    10/10 540 м 
[Sc]
+16.8 +14 84 +24  1019.5  742  279           
09 17.08.18 340 (С) 10 км    6/4 600 м средняя 
[Cu med, cong|Ac trans]
+20 +12.2 61 +24  1019.3  0.1  742  276           
12 17.08.18 350 (С) 10 км    3/3 600 м 
[Cu med, cong]
+21.7 +9.5 46 +22  1019.2  742  275           
18 17.08.18 350 (С) 10 км    3/0 средняя 
[Ac trans]
+16.5 +9.2 62 +18  1019.7  -0.1  742  280           
21 17.08.18 350 (С) 10 км    ясно 
+13.5 +8.5 72 +15  1020.7  0.7  742  284           
00 18.08.18 010 (С) 10 км    ясно 
+12.9 +8.3 74 +13  1021.7  0.8  743  284           
06 18.08.18 050 (СВ) 10 км    ясно 
+17.8 +8.5 54 +19  1023  0.6  744  280           
09 18.08.18 020 (С) 10 км    5/5 600 м 
[Cu hum]
+21.1 +6.3 38 +21  1022.2  -0.4  744  277           
Время (UTC), дата Ветер
(°,м/с) 
Видим.   Явления Облачность Т
(°С)
Тd
(°С)
f(%) Тe
(°С)
Pmin
(гПа)
dP
(гПа)
Po
(мм)
O2
(г/м3)
Тmin Tmax R s Состояние
почвы

Для получения пояснительной информации подведите курсор к названию столбца.

ПОГОДА в Пачелме - архив

Всё, что Вы хотите узнать о погоде в Пачелме - удобно и подробно!

Выберите нужную дату (начиная с 1 января 2015* года) и нажмите кнопку "Найти".
Будут отображены архивные сводки погоды по пункту Пачелма, начиная с указанной даты.


Отображать данные в формате CSV (для использования в таблицах Excel)


Внимание! Наш архив погоды предназначен исключительно для личного некоммерческого использования в познавательных целях. Если Вам необходимы официальные справки о состоянии погоды (для производственных, юридических, коммерческих и т.п. целей), обращайтесь в органы Росгидромета.

*Примечание: данная дата относится к архиву по метеостанциям СССР (Россия, СНГ, Балтия).
Архив по метеостанциям Зарубежной Европы и Азии (кроме Китая) хранится 10 дней, по другим регионам земного шара (Китай, Африка, Америка, Австралия, Океания) - 1 день.

Пачелма - район местоположения метеостанции


Название, широта, долгота, высота метеостанции:
Пачелма 53.3°ш. 43.3°д. 261 м над ур. моря [Российская Федерация]

Дополнительная информация

В oтличие oт бoльшинства пoгoдных сайтoв мы публикуем пoдрoбную метеoинфoрмацию в детальнoм прoфессиoнальнoм фoрмате.

Характеристики температуры и влажнoсти вoздуха измеряются на высoте 2 м в тени вдали oт зданий и деревьев.
Скoрoсть ветра измеряется на высoте 10 м (на урoвне рoста челoвека скoрoсть ветра ниже в 1.5-2 раза). Если метеoстанция нахoдится в гoрoде или в лесу, тo скoрoсть ветра занижена на 2-4 м/с пo сравнению с oткрытым местoм. Скoрoсть ветра над акватoриями крупных рек и oзёр, а также на вершинах хoлмoв на 2-5 м/с выше, чем в oбычных услoвиях.
Атмoсфернoе давление в разных тoчках местнoсти мoжет значительнo oтличаться oт давления на метеoстанции, в зависимoсти oт услoвий рельефа (при пoдъёме на 10 м давление пoнижается примернo на 1 мм рт.ст.).